TITAN 3C TRANSTAGE DEB, 43447

Orbit data source: Space-Track

TITAN 3C TRANSTAGE DEB, 43447 is space debris in GEO originally from a launch on Sun, 09 Feb 1969 UTC launched from the Air Force Eastern Test Range (AFETR). Debris objects in space refer to the collection of defunct objects orbiting the Earth. Examples of debris include non-operational satellites, rocket bodies, and fragments generated from explosions, collisions, or faulty payload assembly.

Loading next visibility...
Identifier
43447, 1969-013G
Orbit
GEO
Country
Flag of USUS
Related business
Manufacturer
Martin Marietta
Mission
Spacecraft
Bus & Motor
Unknown
Mass
Unknown
Launch date (UTC)
1969-02-09 (58 years ago)
Launch vehicle
Unknown
Launch site
Air Force Eastern Test Range (AFETR)
Object type
Payload
Rocket body
Debris
Shape & HBR
Unknown shape, 1.1 m
Radar Cross Section
Medium (>0.1 m² and <1 m²)

Expand to show TLE details & history
Last TLE update: 1 day ago

TLE from 1 day ago
0 TITAN 3C TRANSTAGE DEB
1 43447U 69013G   26254.53422799 -.00000086  00000-0  00000-0 0  9996
2 43447   1.5083  81.6408 0136447  27.0804 334.6498  0.97139599 30107
Epoch: 2026-09-11T12:49Z
TLE epoch observation values (Epoch: 2026-09-11T12:49:17.298Z)
Latitude
Longitude
-100.19329°
Altitude
36,160.81 km
Speed
3.08 km/s
True Right ascension
05h 30m 44s
True Declination
0° 00' 00"
Sunlit
Object was in daylight at epoch
Visualization orbit readout
Latitude
Unknown
Longitude
Unknown
Altitude
Unknown
Speed
Unknown
Apparent Right ascension
Unknown
Apparent Declination
Unknown
Sunlit
N/A
Visualization observer readout
Local Sidereal Time
11:14:38
Azimuth
Unknown
Elevation
Unknown
Doppler factor
Unknown
Orbital elements
Apogee altitude
37,276.86 km
Perigee altitude
36,101.578 km
Semi-major axis
43,067.356 km
Eccentricity
0.01364
Inclination
1.5083°
RAAN
81.6408°
Arg. of periapsis
27.0804°
True anomaly
333.9699°
Mean anomaly
334.6498°
Eccentric anomaly
334.31091°
Mean motion
0.24284 °/min
Orbital period
1,482.46 mins
BSTAR
0
Loading maneuver chart data...
Computing Atmospheric mass density...

Documentation

Showing up to 5 results
|